Weather Roundup
Issued by NWS

Home | Current Version | Previous Version | Text Only | Print | Product List | Glossary On
Versions: 1 2 3 4 5 6 7 8 9 10 11 12 13 14 15 16 17 18 19 20 21 22 23 24 25 26 27 28 29 30 31 32 33 34 35 36 37 38 39 40 41 42 43 44 45 46 47 48 49 50
000
NZUS93 KARX 232059
HRRWXR

CURRENT HOURLY OBSERVATIONS ACROSS
MUCH OF THE UPPER MISSISSIPPI VALLEY
NATIONAL WEATHER SERVICE LA CROSSE WI
400 PM CDT SAT JUL 23 2016


...SOUTHEAST MINNESOTA...


CITY           SKY/WX    TMP DP  RH WIND       PRES   REMARKS
ROCHESTER      CLOUDY    71  70  96 SE16G23   29.87F
ROCHESTER/MAYO MOCLDY    71  71 100 SE15G22   29.86F
WINONA         LGT RAIN  70  68  94 S7        29.88F
AUSTIN         PTSUNNY   72  70  94 SE12G17   29.85S
ALBERT LEA     CLOUDY    73  73 100 SE12      29.85F
DODGE CENTER   CLOUDY    72  70  94 SE16G23   29.85F
PRESTON        LGT RAIN  69  68  94 SE14      29.90F
OWATONNA       CLOUDY    77  72  83 SE13G21   29.83F
FARIBAULT      CLOUDY    77  72  83 SE13      29.84F
$$

...ELSEWHERE IN MINNESOTA...


CITY           SKY/WX    TMP DP  RH WIND       PRES   REMARKS
MINNEAPOLIS    LGT RAIN  75  69  81 SE5G18    29.85S
INTNL FALLS    CLOUDY    77  64  64 SE10      29.84F
DULUTH         CLOUDY    68  61  78 E13       29.90S
RED WING       CLOUDY    75  70  83 SE12G18   29.82F
REDWOOD FALLS  CLOUDY    83  74  74 SE14      29.79F
MANKATO        CLOUDY    79  72  78 SE9       29.84R
WORTHINGTON    PTSUNNY   87  77  72 MISG      29.80F HX  99
FAIRMONT       CLOUDY    82  75  78 S16G23    29.80F
$$

...SOUTHWEST WISCONSIN...


CITY           SKY/WX    TMP DP  RH WIND       PRES   REMARKS
LA CROSSE      RAIN      72  70  93 SE12      29.91F FOG
PRAIRIE DU CHI CLOUDY    71  69  96 NW16G24   29.95R
BOSCOBEL       LGT RAIN  73  72  96 NW10      29.96R
LONE ROCK      NOT AVBL
PLATTEVILLE    CLOUDY    76  73  90 E8        29.93F
FORT MC COY    NOT AVBL
MAUSTON-NEW LI LGT RAIN  71  71  98 CALM      29.97R
VIROQUA        CLOUDY    70  70 100 CALM      30.02R
WIS DELLS      NOT AVBL
$$

...ELSEWHERE IN WISCONSIN...


CITY           SKY/WX    TMP DP  RH WIND       PRES   REMARKS
MILWAUKEE      TSTM      80  73  79 NE8       29.96S
MADISON        CLOUDY    71  69  93 S8        29.97R
GREEN BAY      CLOUDY    83  67  58 SE8       29.96F
EAU CLAIRE     NOT AVBL
BLACK RVR FLS  RAIN      71  71 100 SE5       29.93F
MEDFORD        RAIN      72  72 100 S5        29.97F
WAUSAU         CLOUDY    78  69  73 S8        29.95F
WIS RAPIDS     LGT RAIN  75  69  81 SW3       30.00R
MARSHFIELD     LGT RAIN  73  69  87 SW7       29.97F
RICE LAKE      LGT RAIN  72  69  89 SE3       29.90F
$$

...NORTHEAST IOWA...


CITY           SKY/WX    TMP DP  RH WIND       PRES   REMARKS
WATERLOO       CLOUDY    73  70  90 E12G18    29.87S
DUBUQUE        CLOUDY    78  73  84 E8        29.93F
DECORAH        CLOUDY    70  70 100 E13G21    29.90F
MASON CITY     CLOUDY    76  74  93 SE10G17   29.87R
CHARLES CITY   CLOUDY    73  72  94 E13       29.90R
OELWEIN        CLOUDY    72  70  94 SE21G26   29.92F FOG
$$

...ELSEWHERE IN IOWA...


CITY           SKY/WX    TMP DP  RH WIND       PRES   REMARKS
DES MOINES     CLOUDY    91  80  70 S12       29.82F HX 109
IOWA CITY      CLOUDY    89  80  74 SE10      29.87S HX 106
FORT DODGE     MOSUNNY   88  79  74 S12G20    29.83S HX 102
MARSHALLTOWN   CLOUDY    85  82  91 SE5       29.84F HX 102
CEDAR RAPIDS   CLOUDY    87  81  82 S10       29.86S HX 104
$$

...NORTHERN ILLINOIS...


CITY           SKY/WX    TMP DP  RH WIND       PRES   REMARKS
CHICAGO-OHARE  CLOUDY    90  74  59 S10       29.91F HX  99
CHICAGO-MIDWAY CLOUDY    92  73  53 SW8       29.92F HX 100
MOLINE         CLOUDY    91  79  67 SE10      29.89F HX 107
ROCKFORD       CLOUDY    86  77  74 NW9       29.95F HX  97
PEORIA         MOSUNNY   90  78  68 S9        29.93F HX 104
$$

NOTE: "FAIR" INDICATES FEW OR NO CLOUDS BELOW 12,000 FEET WITH NO
SIGNIFICANT WEATHER AND/OR OBSTRUCTIONS TO VISIBILITY. WIND
SPEEDS ARE IN MILES-PER-HOUR.




USA.gov is the U.S. government's official web portal to all federal, state and local government web resources and services.